Location: Ailly
(50.0793°N, 1.9944°E)
Time: 18:29:04
(UTC+00:00)

Cosmos 1500 Rocket - Pass Details

Date: 15 January 2026
Orbit: 597 x 623 km, 82.5° (Epoch: 18 February)

Event Time Altitude Azimuth Distance (km) Brightness Sun altitude
Rises 06:12:29 0° 209° (SSW) 2,855 6.8 -14.3°
Reaches altitude 10° 06:14:49 10° 218° (SW) 1,961 5.9 -14.0°
Maximum altitude 06:18:52 38° 287° (WNW) 942 4.0 -13.3°
Drops below altitude 10° 06:23:00 10° 356° (N) 1,991 5.9 -12.7°
Sets 06:25:22 0° 5° (N) 2,906 6.9 -12.3°
